Weather History for Bakersfield, CA

Change the Weather History Date:

Thursday, September 5, 2013

  Actual Average Record
Temperature  
Mean Temperature 81 °F 79 °F  
Max Temperature 92 °F 93 °F 109 °F (1904)
Min Temperature 69 °F 66 °F 49 °F (1916)
Degree Days  
Heating Degree Days 0    
Month to date heating degree days 0  
Since 1 July heating degree days 0  
Cooling Degree Days 16    
Month to date cooling degree days 90  
Year to date cooling degree days 2204  
Growing Degree Days 30 (Base 50)    
Moisture  
Dew Point 55 °F    
Average Humidity 43    
Maximum Humidity 57    
Minimum Humidity 28    
Precipitation  
Precipitation 0.00 in 0.00 in 0.44 in (1978)
Month to date precipitation T 0.01  
Year to date precipitation 2.36 4.44  
Since 1 July precipitation T 0.05  
Snow  
Snow 0.00 in - - ()
Month to date snowfall 0.0  
Since 1 July snowfall 0.0  
Since 1 September snowfall 0.0  
Snow Depth 0.00 in    
Sea Level Pressure  
Sea Level Pressure 29.90 in    
Wind  
Wind Speed 5 mph (NW)    
Max Wind Speed 13 mph    
Max Gust Speed 15 mph    
Visibility 10 miles    
Events      
T = Trace of Precipitation, MM = Missing Value Source: NWS Daily Summary

Daily Weather History Graph

Daily Weather History Graph

Search for Another Location

Airport:

Trip Planner

Search our weather history database for the weather conditions in past years. The results will help you decide how hot, cold, wet, or windy it might be!

Date:

Astronomy

Sep. 05, 2013 Rise Set
Actual Time 6:31 AM PDT 7:17 PM PDT
Civil Twilight 6:05 AM PDT 7:42 PM PDT
Nautical Twilight 5:35 AM PDT 8:13 PM PDT
Astronomical Twilight 5:04 AM PDT 8:44 PM PDT
Moon 6:45 AM PDT (9/5) 7:15 PM PDT (9/5)
Length of Visible Light 13h 37m
Length of Day
12h 45m
New Moon, 0% of the Moon is Illuminated
Sep 5
New Moon
Sep 12
First Quarter
Sep 19
Full
Sep 26
Last Quarter
Oct 4
New

Hourly Weather History & Observations

Time (PDT) Temp. Heat Index Dew Point Humidity Pressure Visibility Wind Dir Wind Speed Gust Speed Precip Events Conditions
12:54 AM 80.1 °F 80.6 °F 57.9 °F 47% 29.90 in 10.0 mi Calm Calm - N/A   Clear
1:54 AM 77.0 °F - 57.0 °F 50% 29.88 in 10.0 mi NW 8.1 mph - N/A   Clear
2:54 AM 73.9 °F - 57.0 °F 55% 29.89 in 10.0 mi WNW 10.4 mph - N/A   Clear
3:54 AM 71.1 °F - 55.9 °F 59% 29.90 in 10.0 mi NW 9.2 mph - N/A   Clear
4:54 AM 70.0 °F - 54.0 °F 57% 29.91 in 10.0 mi NW 5.8 mph - N/A   Clear
5:54 AM 69.1 °F - 53.1 °F 57% 29.92 in 10.0 mi West 4.6 mph - N/A   Clear
6:54 AM 70.0 °F - 53.1 °F 55% 29.93 in 10.0 mi Calm Calm - N/A   Clear
7:54 AM 71.1 °F - 52.0 °F 51% 29.94 in 10.0 mi West 4.6 mph - N/A   Clear
8:54 AM 73.0 °F - 52.0 °F 48% 29.95 in 10.0 mi NNW 4.6 mph - N/A   Clear
9:54 AM - - - N/A% 29.97 in - North - - N/A   Clear
10:54 AM 75.2 °F - 55.4 °F 50% 29.96 in 10.0 mi WNW 4.6 mph - N/A   Clear
11:54 AM 82.9 °F - 52.0 °F 34% 29.94 in 10.0 mi Variable 3.5 mph - N/A   Clear
12:54 PM 84.9 °F - 52.0 °F 32% 29.92 in 10.0 mi Calm Calm - N/A   Clear
1:54 PM 88.0 °F - 52.0 °F 29% 29.90 in 10.0 mi West 6.9 mph - N/A   Clear
2:54 PM 89.1 °F 86.7 °F 53.1 °F 29% 29.88 in 10.0 mi WNW 5.8 mph - N/A   Clear
3:54 PM 91.0 °F 88.7 °F 54.0 °F 28% 29.86 in 10.0 mi Variable 5.8 mph - N/A   Clear
4:54 PM 91.9 °F 90.0 °F 55.0 °F 29% 29.85 in 10.0 mi NW 8.1 mph - N/A   Clear
5:54 PM 91.0 °F 89.2 °F 55.9 °F 30% 29.84 in 10.0 mi WNW 8.1 mph - N/A   Clear
6:54 PM 89.1 °F 87.3 °F 55.9 °F 32% 29.85 in 10.0 mi West 6.9 mph - N/A   Clear
7:54 PM 87.1 °F 85.9 °F 57.0 °F 36% 29.86 in 10.0 mi WNW 4.6 mph - N/A   Clear
8:54 PM 84.0 °F 83.3 °F 57.0 °F 40% 29.88 in 10.0 mi NNW 3.5 mph - N/A   Clear
9:54 PM 84.9 °F 84.4 °F 59.0 °F 41% 29.91 in 10.0 mi NNE 3.5 mph - N/A   Clear
10:54 PM 82.9 °F 82.6 °F 57.9 °F 42% 29.90 in 10.0 mi Calm Calm - N/A   Clear
11:54 PM 80.1 °F 80.4 °F 57.0 °F 45% 29.91 in 10.0 mi NW 3.5 mph - N/A   Clear